Powrót do katalogu

STARLINK-30828

AktywnyŁącznośćVLEO
NORAD 58671·PAYLOAD·🇺🇸 United States

Wystrzelony Dec 29, 2023 z Cape Canaveral Space Force Station

Loading…

Następne Przeloty (najbliższe 24 godziny)

TLE

ŚwieżeSource: CelesTrak SupGP

Epoka: Sep 15, 2026, 03:12 UTC

1 58671C 23211E   26258.13381944  .00009176  00000+0  33232-3 0  2588
2 58671  42.9994  95.4534 0001505 268.2907 212.1153 15.27577961    17

Śledź STARLINK-30828 w czasie rzeczywistym z AllMySat

Download on the App Store